Location: Ferchesar
(52.6477°N, 12.4298°E)
Time: 04:37:03
(UTC+01:00)

Vanguard 1 Rocket - Pass Details

Date: 15 December 2021
Orbit: 651 x 4224 km, 34.3° (Epoch: 15 January)

Event Time Altitude Azimuth Distance (km) Brightness Sun altitude
Exits shadow 06:14:38 - 248° (WSW) 4,996 10.7 -17.0°
Reaches altitude 10° 06:16:05 10° 242° (WSW) 4,930 10.7 -16.7°
Maximum altitude 06:24:05 17° 209° (SSW) 5,235 11.1 -15.6°
Drops below altitude 10° 06:34:37 10° 178° (S) 6,686 12.1 -14.1°
Sets 06:43:54 0° 162° (SSE) 8,220 12.9 -12.8°
